Weather History for KBMG - February, 2013

Change the Weather History Date:

Thursday, February 14, 2013

  Actual Average Record
Temperature  
Mean Temperature 42 °F 33 °F  
Max Temperature 52 °F 43 °F 57 °F (2001)
Min Temperature 31 °F 23 °F 7 °F (2015)
Degree Days  
Heating Degree Days 23 32  
Month to date heating degree days 448 471  
Since 1 July heating degree days 3492 3646  
Cooling Degree Days 0 0  
Month to date cooling degree days 0 0  
Year to date cooling degree days 0 0  
Moisture  
Dew Point 32 °F    
Average Humidity 70    
Maximum Humidity 89    
Minimum Humidity 50    
Precipitation  
Precipitation 0.00 in 0.11 in 0.68 in (2005)
Month to date precipitation 0.50 1.51  
Year to date precipitation 5.96 4.82  
Sea Level Pressure  
Sea Level Pressure 29.89 in    
Wind  
Wind Speed 10 mph (SW)    
Max Wind Speed 18 mph    
Max Gust Speed 26 mph    
Visibility 9 miles    
Events      
T = Trace of Precipitation, MM = Missing Value Source: NWS Daily Summary

Daily Weather History Graph

Daily Weather History Graph

Search for Another Location

Airport or City:

Trip Planner

Search our weather history database for the weather conditions in past years. The results will help you decide how hot, cold, wet, or windy it might be!

Date:

Astronomy

Feb. 14, 2013 Rise Set
Actual Time 7:38 AM EST 6:22 PM EST
Civil Twilight 7:11 AM EST 6:50 PM EST
Nautical Twilight 6:40 AM EST 7:21 PM EST
Astronomical Twilight 6:09 AM EST 7:52 PM EST
Moon 9:43 AM EST (2/14) 11:22 PM EST (2/14)
Length of Visible Light 11h 38m
Length of Day
10h 43m
Waxing Crescent, 21% of the Moon is Illuminated
Feb 14
Waxing Crescent
Feb 17
First Quarter
Feb 25
Full
Mar 4
Last Quarter
Mar 11
New

Hourly Weather History & Observations

Time (EST) Temp. Windchill Dew Point Humidity Pressure Visibility Wind Dir Wind Speed Gust Speed Precip Events Conditions
12:53 AM 34.0 °F 28.8 °F 30.0 °F 85% 29.88 in 7.0 mi SSW 5.8 mph - N/A   Clear
1:53 AM 35.1 °F 27.9 °F 30.9 °F 85% 29.88 in 8.0 mi SSW 9.2 mph - N/A   Scattered Clouds
2:08 AM 35.6 °F 28.0 °F 32.0 °F 87% 29.86 in 9.0 mi SW 10.4 mph - N/A   Mostly Cloudy
2:53 AM 36.0 °F 28.0 °F 32.0 °F 86% 29.86 in 9.0 mi SW 11.5 mph - N/A   Mostly Cloudy
3:53 AM 36.0 °F 28.5 °F 32.0 °F 86% 29.86 in 8.0 mi SW 10.4 mph - N/A   Mostly Cloudy
4:16 AM 35.6 °F 27.1 °F 32.0 °F 87% 29.84 in 7.0 mi SW 12.7 mph - N/A   Mostly Cloudy
4:53 AM 36.0 °F 29.0 °F 32.0 °F 86% 29.85 in 7.0 mi SSW 9.2 mph - N/A   Overcast
5:53 AM 36.0 °F 29.6 °F 32.0 °F 86% 29.86 in 7.0 mi SSW 8.1 mph - N/A   Overcast
6:53 AM 36.0 °F 29.0 °F 32.0 °F 86% 29.86 in 7.0 mi SSW 9.2 mph - N/A   Overcast
7:53 AM 36.0 °F 29.6 °F 32.0 °F 86% 29.86 in 6.0 mi SSW 8.1 mph - N/A   Mostly Cloudy
8:33 AM 35.6 °F 28.6 °F 32.0 °F 87% 29.85 in 6.0 mi South 9.2 mph - N/A   Mostly Cloudy
8:53 AM 36.0 °F 28.5 °F 32.0 °F 86% 29.87 in 7.0 mi SSW 10.4 mph - N/A   Mostly Cloudy
9:45 AM 37.4 °F 28.5 °F 33.8 °F 87% 29.85 in 6.0 mi SSW 15.0 mph 19.6 mph N/A   Haze
9:53 AM 37.9 °F 31.5 °F 33.1 °F 83% 29.86 in 6.0 mi SSW 9.2 mph - N/A   Haze
10:40 AM 41.0 °F 33.5 °F 33.8 °F 76% 29.84 in 10.0 mi SSW 13.8 mph - N/A   Scattered Clouds
10:53 AM 43.0 °F 36.4 °F 34.0 °F 71% 29.86 in 10.0 mi SSW 12.7 mph - N/A   Partly Cloudy
11:53 AM 45.0 °F 38.5 °F 34.0 °F 65% 29.87 in 10.0 mi WSW 13.8 mph 20.7 mph N/A   Overcast
12:53 PM 46.9 °F - 35.1 °F 63% 29.86 in 10.0 mi SW 16.1 mph 20.7 mph N/A   Partly Cloudy
1:17 PM 46.4 °F 39.5 °F 35.6 °F 66% 29.84 in 10.0 mi WSW 17.3 mph 23.0 mph N/A   Mostly Cloudy
1:32 PM 48.2 °F - 35.6 °F 62% 29.84 in 10.0 mi WSW 11.5 mph 21.9 mph N/A   Partly Cloudy
1:53 PM 48.9 °F - 35.1 °F 59% 29.84 in 10.0 mi West 11.5 mph - N/A   Clear
2:53 PM 51.1 °F - 35.1 °F 54% 29.85 in 10.0 mi WSW 18.4 mph 26.5 mph N/A   Scattered Clouds
3:53 PM 51.1 °F - 33.1 °F 50% 29.86 in 10.0 mi West 15.0 mph 24.2 mph N/A   Mostly Cloudy
4:53 PM 51.1 °F - 33.1 °F 50% 29.88 in 10.0 mi WNW 12.7 mph - N/A   Scattered Clouds
5:53 PM 48.9 °F - 30.9 °F 50% 29.91 in 10.0 mi West 11.5 mph 19.6 mph N/A   Partly Cloudy
6:53 PM 45.0 °F 41.2 °F 30.0 °F 56% 29.94 in 10.0 mi WNW 6.9 mph - N/A   Clear
7:53 PM 43.0 °F 38.8 °F 32.0 °F 65% 29.98 in 10.0 mi Variable 6.9 mph - N/A   Clear
8:53 PM 39.9 °F 33.9 °F 30.0 °F 68% 30.00 in 10.0 mi NNW 9.2 mph 17.3 mph N/A   Clear
9:53 PM 37.0 °F 32.4 °F 28.0 °F 70% 30.03 in 10.0 mi Variable 5.8 mph - N/A   Partly Cloudy
10:53 PM 37.0 °F 32.4 °F 26.1 °F 65% 30.03 in 10.0 mi NNW 5.8 mph - N/A   Mostly Cloudy
11:53 PM 32.0 °F - 25.0 °F 75% 30.01 in 10.0 mi Calm Calm - N/A   Clear